Date String (YYYY-MM-DD hh:mm:ss) UTC,Instrument flags,absolute air pressure of the measurement (hPa),sample flow rate (lpm),inlet stack bypass flow (lpm),air temperature of the measurement (°C),ambient temperature measured by the external sensor (°C),aerosol sample conditioner tube jacket temperature (°C),OPC LED temperature (°C),internal box temperature (°C),relative humidity of the measurement (%),span deviation,mass concentration of particles derived from Lorenz-Mie calculation of OPC scattering (μg/m³),mass concentration of particles derived from Lorenz-Mie calculation of OPC scattering (μg/m³),mass concentration of particles derived from Lorenz-Mie calculation of OPC scattering (μg/m³)
DateTimeUTC,F1_M11,P_M11,Q1_M11,Q2_M11,T1_M11,T2_M11,T3_M11,T4_M11,T5_M11,U1_M11,ZSPAN_M11,X2_M11,X0_M11,X1_M11
2023-08-09 18:00:00,SystemResetWarning,0831.4,5.00,000.00,029.2,028.0,000.0,037.6,031.0,25.5,0000.0,0005.00,0010.78,0004.51
2023-08-09 18:01:00,SystemResetWarning,0831.3,4.98,000.00,029.2,026.9,000.0,037.5,030.8,25.9,0000.0,0005.02,0010.49,0004.50
2023-08-09 18:02:00,SystemResetWarning,0831.4,5.00,000.00,029.2,025.3,000.0,037.4,030.5,25.8,0000.0,0005.04,0010.11,0004.50
2023-08-09 18:03:00,SystemResetWarning,0831.3,5.01,000.00,029.1,025.0,000.0,037.3,030.4,25.9,0000.0,0005.05,0010.53,0004.51
2023-08-09 18:04:00,SystemResetWarning,0831.3,5.01,000.00,029.0,025.3,000.0,037.3,030.3,26.4,0000.0,0005.06,0010.02,0004.50
2023-08-09 18:05:00,SystemResetWarning,0831.4,5.00,000.00,028.9,025.7,000.0,037.4,030.3,25.6,0000.0,0005.04,0009.79,0004.49
2023-08-09 18:06:00,SystemResetWarning,0831.4,5.00,000.00,028.9,026.2,000.0,037.4,030.5,26.4,0000.0,0005.06,0009.83,0004.48
2023-08-09 18:07:00,SystemResetWarning,0831.3,5.00,000.00,029.0,026.6,000.0,037.4,030.6,25.5,0000.0,0005.06,0010.54,0004.48
2023-08-09 18:08:00,SystemResetWarning,0831.3,5.00,000.00,029.0,026.9,000.0,037.5,030.7,25.5,0000.0,0005.08,0010.91,0004.48
2023-08-09 18:09:00,SystemResetWarning,0831.4,4.99,000.00,029.0,027.2,000.0,037.5,030.7,25.7,0000.0,0005.06,0011.75,0004.48
2023-08-09 18:10:00,SystemResetWarning,0831.4,5.01,000.00,029.1,027.5,000.0,037.5,030.8,25.0,0000.0,0005.04,0011.90,0004.48
2023-08-09 18:11:00,SystemResetWarning,0831.4,5.01,000.00,029.1,027.7,000.0,037.5,030.9,24.9,0000.0,0005.01,0011.63,0004.48
2023-08-09 18:12:00,SystemResetWarning,0831.4,4.99,000.00,029.1,027.9,000.0,037.6,030.9,25.0,0000.4,0005.03,0011.78,0004.49
2023-08-09 18:13:00,SystemResetWarning,0831.3,5.00,000.00,029.2,028.0,000.0,037.6,031.0,24.7,0000.9,0005.04,0011.25,0004.51
2023-08-09 18:14:00,SystemResetWarning,0831.3,5.00,000.00,029.2,028.0,000.0,037.6,031.0,24.8,0000.6,0005.07,0011.08,0004.52
2023-08-09 18:15:00,SystemResetWarning,0831.3,4.98,000.00,029.2,026.7,000.0,037.5,030.8,25.4,0000.0,0005.05,0010.80,0004.53
2023-08-09 18:16:00,SystemResetWarning,0831.3,5.01,000.00,029.2,025.1,000.0,037.4,030.5,25.9,0000.0,0005.07,0010.86,0004.54
2023-08-09 18:17:00,SystemResetWarning,0831.3,5.01,000.00,029.1,025.0,000.0,037.3,030.4,25.5,0000.4,0005.06,0010.92,0004.54
2023-08-09 18:18:00,SystemResetWarning,0831.3,4.99,000.00,029.0,025.4,000.0,037.4,030.3,25.3,0000.5,0005.11,0011.25,0004.55
2023-08-09 18:19:00,SystemResetWarning,0831.3,5.00,000.00,029.0,025.8,000.0,037.4,030.4,25.8,0000.0,0005.13,0011.29,0004.55
2023-08-09 18:20:00,SystemResetWarning,0831.3,5.01,000.00,029.0,026.2,000.0,037.4,030.5,25.3,0000.0,0005.17,0010.64,0004.57
2023-08-09 18:21:00,SystemResetWarning,0831.3,4.99,000.00,029.0,026.6,000.0,037.5,030.6,25.2,0000.0,0005.24,0010.39,0004.60
2023-08-09 18:22:00,SystemResetWarning,0831.3,5.00,000.00,029.0,027.0,000.0,037.5,030.7,25.0,0000.0,0005.28,0010.39,0004.63
2023-08-09 18:23:00,SystemResetWarning,0831.3,5.00,000.00,029.0,027.3,000.0,037.5,030.7,24.8,0000.0,0005.27,0010.45,0004.64
2023-08-09 18:24:00,SystemResetWarning,0831.3,5.01,000.00,029.1,027.5,000.0,037.5,030.8,24.7,0000.0,0005.30,0010.87,0004.67
2023-08-09 18:25:00,SystemResetWarning,0831.3,5.01,000.00,029.1,027.7,000.0,037.5,030.9,25.0,0000.0,0005.31,0010.92,0004.68
2023-08-09 18:26:00,SystemResetWarning,0831.3,5.00,000.00,029.2,027.9,000.0,037.6,030.9,24.3,0000.0,0005.35,0011.02,0004.70
2023-08-09 18:27:00,SystemResetWarning,0831.3,5.00,000.00,029.2,028.0,000.0,037.6,031.0,24.8,0000.0,0005.42,0011.56,0004.74
2023-08-09 18:28:00,SystemResetWarning,0831.3,4.99,000.00,029.2,027.2,000.0,037.5,030.9,24.5,0000.0,0005.49,0011.59,0004.78
2023-08-09 18:29:00,SystemResetWarning,0831.3,5.01,000.00,029.2,025.4,000.0,037.4,030.6,24.4,-000.6,0005.46,0010.69,0004.81
2023-08-09 18:30:00,SystemResetWarning,0831.2,5.00,000.00,029.1,024.9,000.0,037.3,030.4,24.3,0000.2,0005.47,0010.38,0004.85
2023-08-09 18:31:00,SystemResetWarning,0831.3,5.01,000.00,029.0,025.2,000.0,037.3,030.3,24.1,0000.7,0005.49,0010.26,0004.87
2023-08-09 18:32:00,SystemResetWarning,0831.2,5.00,000.00,029.0,025.6,000.0,037.4,030.3,24.2,0000.7,0005.49,0010.45,0004.87
2023-08-09 18:33:00,SystemResetWarning,0831.2,5.00,000.00,029.0,026.1,000.0,037.4,030.4,24.2,0000.4,0005.55,0011.08,0004.88
2023-08-09 18:34:00,SystemResetWarning,0831.3,5.00,000.00,029.0,026.5,000.0,037.4,030.6,24.7,0000.0,0005.57,0011.07,0004.88
2023-08-09 18:35:00,SystemResetWarning,0831.3,5.00,000.00,029.0,026.8,000.0,037.5,030.7,24.7,0000.0,0005.56,0011.40,0004.87
2023-08-09 18:36:00,SystemResetWarning,0831.2,5.00,000.00,029.0,027.1,000.0,037.5,030.7,25.3,0000.0,0005.59,0012.00,0004.88
2023-08-09 18:37:00,SystemResetWarning,0831.3,5.00,000.00,029.1,027.4,000.0,037.5,030.8,24.9,0000.2,0005.60,0012.07,0004.88
2023-08-09 18:38:00,SystemResetWarning,0831.2,5.01,000.00,029.1,027.6,000.0,037.5,030.9,24.7,0000.5,0005.58,0011.62,0004.87
2023-08-09 18:39:00,SystemResetWarning,0831.3,4.99,000.00,029.1,027.8,000.0,037.6,030.9,23.9,0000.0,0005.53,0011.52,0004.85
2023-08-09 18:40:00,SystemResetWarning,0831.3,5.00,000.00,029.2,028.0,000.0,037.6,031.0,23.4,0000.0,0005.55,0011.51,0004.84
2023-08-09 18:41:00,SystemResetWarning,0831.3,5.00,000.00,029.2,027.7,000.0,037.5,031.0,23.3,0000.0,0005.54,0011.40,0004.84
2023-08-09 18:42:00,SystemResetWarning,0831.3,4.99,000.00,029.2,025.9,000.0,037.4,030.7,23.5,0000.0,0005.54,0011.38,0004.84
2023-08-09 18:43:00,SystemResetWarning,0831.2,5.01,000.00,029.1,024.9,000.0,037.3,030.4,23.7,0000.0,0005.53,0011.25,0004.85
2023-08-09 18:44:00,SystemResetWarning,0831.2,5.01,000.00,029.0,025.1,000.0,037.3,030.3,23.7,0000.0,0005.46,0010.60,0004.85
2023-08-09 18:45:00,SystemResetWarning,0831.2,4.99,000.00,029.0,025.4,000.0,037.3,030.3,23.8,0000.0,0005.45,0010.68,0004.85
2023-08-09 18:46:00,SystemResetWarning,0831.2,5.00,000.00,028.9,025.9,000.0,037.4,030.4,24.1,0000.0,0005.46,0010.28,0004.86
2023-08-09 18:47:00,SystemResetWarning,0831.2,5.01,000.00,028.9,026.3,000.0,037.4,030.5,23.9,0000.0,0005.44,0009.64,0004.87
2023-08-09 18:48:00,SystemResetWarning,0831.1,4.99,000.00,029.0,026.7,000.0,037.4,030.6,23.8,0000.0,0005.42,0009.94,0004.88
2023-08-09 18:49:00,SystemResetWarning,0831.1,5.00,000.00,029.0,027.0,000.0,037.4,030.7,24.0,0000.0,0005.40,0009.96,0004.89
2023-08-09 18:50:00,SystemResetWarning,0831.1,4.98,000.00,029.0,027.3,000.0,037.5,030.8,24.1,0000.0,0005.42,0010.28,0004.89
2023-08-09 18:51:00,SystemResetWarning,0831.1,5.01,000.00,029.1,027.5,000.0,037.5,030.8,23.9,0000.0,0005.41,0010.25,0004.88
2023-08-09 18:52:00,SystemResetWarning,0831.1,5.01,000.00,029.1,027.8,000.0,037.5,030.9,23.7,0000.0,0005.45,0010.38,0004.87
2023-08-09 18:53:00,SystemResetWarning,0831.2,5.00,000.00,029.2,027.9,000.0,037.5,030.9,23.1,0000.0,0005.45,0010.42,0004.85
2023-08-09 18:54:00,SystemResetWarning,0831.2,5.00,000.00,029.2,028.1,000.0,037.6,031.0,23.3,0000.7,0005.43,0010.37,0004.84
2023-08-09 18:55:00,SystemResetWarning,0831.2,4.99,000.00,029.3,027.6,000.0,037.5,031.0,23.2,0000.0,0005.47,0010.51,0004.83
2023-08-09 18:56:00,SystemResetWarning,0831.1,5.00,000.00,029.2,025.7,000.0,037.4,030.6,22.8,0000.0,0005.48,0010.85,0004.81
2023-08-09 18:57:00,SystemResetWarning,0831.1,5.01,000.00,029.1,024.9,000.0,037.3,030.4,23.4,0000.0,0005.46,0010.41,0004.78
2023-08-09 18:58:00,SystemResetWarning,0831.1,5.01,000.00,029.0,025.1,000.0,037.3,030.3,23.2,0000.0,0005.44,0010.60,0004.76
2023-08-09 18:59:00,SystemResetWarning,0831.1,4.99,000.00,028.9,025.5,000.0,037.4,030.3,23.6,0000.0,0005.41,0011.18,0004.73
